Location: Caltech
(34.1382°N, 118.1253°W)
Time: 01:24:16
(UTC-08:00)

UOSAT-12 - Visible Passes

Search period start: 30 January 2015 00:00
Search period end: 09 February 2015 00:00
Orbit: 594 x 662 km, 64.6° (Epoch: 29 January)

Date Brightness Start Highest point End Pass type
(mag) Time Alt. Az. Time Alt. Az. Time Alt. Az.
31 Jan 9.7 19:34:03 10° N 19:34:14 11° N 19:34:14 11° N visible
01 Feb 9.6 19:53:58 10° NNW 19:54:40 14° NNW 19:54:40 14° NNW visible
02 Feb 8.7 18:35:11 10° N 18:37:55 18° NE 18:37:55 18° NE visible
02 Feb 9.8 20:14:24 10° NW 20:15:18 15° NW 20:15:18 15° NW visible
03 Feb 7.6 18:54:38 10° NNW 18:58:48 39° NE 18:58:48 39° NE visible
03 Feb 10.2 20:35:41 10° WNW 20:36:12 12° WNW 20:36:12 12° WNW visible
04 Feb 7.0 19:14:41 10° NNW 19:19:22 87° WSW 19:20:01 66° SSE visible
05 Feb 8.4 17:55:38 10° N 17:59:16 22° NE 18:02:56 10° ESE visible
05 Feb 8.6 19:35:16 10° NW 19:39:31 35° WSW 19:41:47 21° SSW visible
06 Feb 7.3 18:15:16 10° NNW 18:19:47 48° ENE 18:24:14 10° SE visible
06 Feb 10.0 19:56:56 10° WNW 19:59:33 15° WSW 20:01:56 10° SW visible
07 Feb 7.4 18:35:25 10° NW 18:40:04 70° WSW 18:44:35 10° SSE visible
08 Feb 9.2 18:56:11 10° NW 19:00:11 28° WSW 19:04:02 10° S visible
